Regional Weather Roundup
Issued by NWS

Home | Current Version | Previous Version | Text Only | Print | Product List | Glossary On
Versions: 1 2 3 4 5 6 7 8 9 10 11 12 13 14 15 16 17 18 19 20 21 22 23 24 25 26 27 28 29 30 31 32 33 34 35 36 37 38 39 40 41 42 43 44 45 46 47 48 49 50
000
ASUS45 KTFX 040510
RWRMT
MONTANA REGIONAL WEATHER ROUNDUP
NATIONAL WEATHER SERVICE GREAT FALLS MT
1100 PM MDT FRI JUL 03 2015

NOTE: "FAIR" INDICATES FEW OR NO CLOUDS BELOW 12000 FEET WITH NO
SIGNIFICANT WEATHER AND/OR OBSTRUCTIONS TO VISIBILITY.

MTZ001>007-043-040600-
WEST OF THE DIVIDE

CITY           SKY/WX    TMP DP  RH WIND       PRES   REMARKS
KALISPELL      CLEAR     76  45  33 CALM      29.81R
MISSOULA       CLEAR     78  44  29 N6        29.86R
BUTTE          CLEAR     68  39  34 S6        30.04R
MULLAN PASS    CLEAR     72  35  25 SW6       30.09S
DEER LODGE       N/A     70  41  35 W3        30.00S
EUREKA           N/A     75  46  35 CALM      29.79R
HAMILTON         N/A     72  50  46 E2        29.90R
PLAINS           N/A     76  45  33 CALM      29.85R
RONAN            N/A     68  57  67 W3        29.91R
$$

MTZ008-052>055-040600-
SOUTHWEST MONTANA

CITY           SKY/WX    TMP DP  RH WIND       PRES   REMARKS
BOZEMAN        CLEAR     70  49  47 CALM      29.93R
DILLON         CLEAR     69  39  33 W3        29.98R
W YELLOWSTONE  CLEAR     61  46  59 CALM      30.11R
THREE FORKS      N/A     68  59  73 CALM      29.92R
TWIN BRIDGES     N/A     71  45  39 NE2       29.97R
$$

MTZ009-010-012-014-046-048-049-054-040600-
EAST SLOPES AND CENTRAL MONTANA

CITY           SKY/WX    TMP DP  RH WIND       PRES   REMARKS
CUT BANK       CLEAR     68  47  46 N5        29.86R
GREAT FALLS    PTCLDY    74  46  36 N13       29.83R
MALMSTROM AFB  PTCLDY    78  47  33 S10       29.83R
HELENA         CLEAR     78  38  23 SW10      29.88R
CONRAD           N/A     62  51  67 CALM      29.89S
$$

MTZ011-013-016-021-045-047-050-051-040600-
NORTH CENTRAL MONTANA

CITY           SKY/WX    TMP DP  RH WIND       PRES   REMARKS
HAVRE          CLEAR     76  49  38 W3        29.76R
LEWISTOWN      CLEAR     71  55  56 E10       29.91S
CHINOOK          N/A     73  52  46 CALM      29.75S
FORT BENTON      N/A     81  48  32 CALM      29.78S
$$

MTZ017>020-022>027-061-062-040600-
NORTHEAST MONTANA

CITY           SKY/WX    TMP DP  RH WIND       PRES   REMARKS
GLASGOW        PTCLDY    71  57  61 E12       29.79F
JORDAN           N/A     72  50  45 E5        29.83S
SIDNEY         PTCLDY    70  61  73 CALM      29.85S
WOLF POINT     PTCLDY    69  62  78 NE6       29.82R HAZE
PLENTYWOOD       N/A     70  63  78 SE7       29.83F
POPLAR           N/A     72  61  68 SE7       29.81F
SCOBEY           N/A     68  58  70 S1        29.83F
$$

MTZ028>42-056>058-040600-
SOUTHCENTRAL AND SOUTHEAST MONTANA

CITY           SKY/WX    TMP DP  RH WIND       PRES   REMARKS
BAKER          CLEAR     69  59  70 SE13      29.90S
BILLINGS       CLEAR     78  52  40 NE5       29.88S
LIVINGSTON     CLEAR     68  46  45 CALM      29.93R
MILES CITY     PTCLDY    79  51  37 E3        29.83S
EKALAKA          N/A     72  57  58 SE15      29.92S
FORSYTH          N/A     73  54  49 SE3       29.83S
LAUREL           N/A     74  50  42 CALM      29.88S
ROUNDUP          N/A     77  48  35 CALM      29.81S
$$

REGIONAL REPORTS...DAKOTAS

CITY           SKY/WX    TMP DP  RH WIND       PRES   REMARKS
WILLISTON      PTCLDY    76  64  66 S8        29.85S
MINOT          CLEAR     67  63  87 SE3       29.87S FOG
DICKINSON      CLEAR     67  62  84 SE9       29.90S HAZE
BEACH          FAIR      66  66 100 SE9       29.90S
CROSBY         FAIR      68  68 100 S8        29.84F
BISMARCK       CLOUDY    68  63  84 CALM      29.91S HAZE
GRAND FORKS    CLOUDY    62  59  90 CALM      29.89S FOG
FARGO          CLEAR     65  61  87 SE3       29.90S FOG
BUFFALO SD       N/A     66  57  72 SE9       29.87S
RAPID CITY     PTCLDY    64  60  87 S3        29.97S
$$

REGIONAL REPORTS...WYOMING/IDAHO/WASHINGTON

CITY           SKY/WX    TMP DP  RH WIND       PRES   REMARKS
GILLETTE       MOCLDY    73  58  59 S10       29.97S
SHERIDAN       PTCLDY    68  59  73 CALM      29.92S
BUFFALO WY     PTCLDY    72  55  55 S6        30.01S
CODY           CLEAR     72  52  49 SW5       30.00S
YELLOWSTONE LA   N/A     55  41  59 NW5       30.23R
IDAHO FALLS    MOCLDY    77  52  41 S13       29.91R
SALMON         CLEAR     75  39  27 S5        29.90R
BOISE          MOCLDY    88  44  21 CALM      29.82R
SPOKANE        PTCLDY    87  38  17 SW10      29.79R
$$

REGIONAL REPORTS...ALBERTA

CITY           SKY/WX    TMP DP  RH WIND       PRES   REMARKS
EDMONTON       CLEAR     61  41  48 NE6       29.84R
CALGARY        PTCLDY    70  57  64 NE9       29.86R
LETHBRIDGE     CLEAR     64  59  82 S14       29.79R
MEDICINE HAT   CLEAR     72  52  49 W7        29.72F
WATERTON GATE    N/A     63  45  51 SW6         N/A
CARDSTON         N/A     70  52  52 SW8         N/A
MILK RIVER       N/A     66  55  68 S3          N/A
ONEFOUR          N/A     70  41  35 N10         N/A
$$

REGIONAL REPORTS...SASKATCHEWAN

CITY           SKY/WX    TMP DP  RH WIND       PRES   REMARKS
SWIFT CURRENT  MOCLDY    73  52  46 S15       29.73F
REGINA         PTCLDY    70  64  83 SE9       29.77F SMOKE
SASKATOON      MOCLDY    70  57  64 NE13      29.75S
CYPRESS HILLS    N/A     68  43  40 W5          N/A
ROCKGLEN         N/A     66  57  72 SE10        N/A
ASSINIBOIA       N/A     68  46  45 SE5         N/A
$$


USA.gov is the U.S. government's official web portal to all federal, state and local government web resources and services.